Regional Weather Roundup
Issued by NWS

Home | Current Version | Previous Version | Text Only | Print | Product List | Glossary Off
Versions: 1 2 3 4 5 6 7 8 9 10 11 12 13 14 15 16 17 18 19 20 21 22 23 24 25 26 27

000
ASUS45 KTFX 210810
RWRMT
MONTANA REGIONAL WEATHER ROUNDUP
NATIONAL WEATHER SERVICE GREAT FALLS MT
100 AM MST SUN JAN 21 2018

NOTE: "FAIR" INDICATES FEW OR NO CLOUDS BELOW 12000 FEET WITH NO
SIGNIFICANT WEATHER AND/OR OBSTRUCTIONS TO VISIBILITY.

MTZ001>007-043-210900-
WEST OF THE DIVIDE

CITY           SKY/WX    TMP DP  RH WIND       PRES   REMARKS
KALISPELL      CLOUDY    27  26  96 CALM      30.09R
MISSOULA       CLOUDY    27  23  85 CALM      30.11R
BUTTE          FAIR      13  10  88 CALM      30.02R
MULLAN PASS    CLOUDY    22  19  89 VRB5      30.00R
ANACONDA         N/A     21  14  73 S5        30.04R
DEER LODGE       N/A     21  18  86 CALM      30.07R
EUREKA           N/A     32  27  80 MISG      30.09S
HAMILTON         N/A     28  21  74 SE6       30.10S WCI  22
RONAN            N/A     32  27  80 CALM      30.12R
$$

MTZ008-052>055-210900-
SOUTHWEST MONTANA

CITY           SKY/WX    TMP DP  RH WIND       PRES   REMARKS
BOZEMAN        CLOUDY    22  18  85 SE5       30.04R
DILLON         CLOUDY    22  14  71 S6        30.02S WCI  14
ENNIS          CLOUDY    23  16  74 CALM      30.06R
W YELLOWSTONE  CLOUDY    -6  -9  84 CALM      29.96S
THREE FORKS      N/A     23  20  89 CALM      30.02S
$$

MTZ009-010-012-014-046-048-049-054-210900-
EAST SLOPES AND CENTRAL MONTANA

CITY           SKY/WX    TMP DP  RH WIND       PRES   REMARKS
CUT BANK       FAIR      28  17  63 W16       29.92R WCI  16
GREAT FALLS    FAIR      26  18  71 SW14      29.96S WCI  14
MALMSTROM AFB  FAIR      24  19  81 SW10      29.97F WCI  13
HELENA         FAIR      23  17  78 CALM      30.03R
AUGUSTA        FAIR      27  16  62 W15       29.94R WCI  15
BOWMANS CRNR   FAIR      22  17  80 SW12      29.95R WCI  11
CHOTEAU          N/A     28  16  59 W10       29.95S WCI  19
FAIRFIELD      FAIR      29  15  57 SW15      29.94S WCI  18
POWER          FAIR      19  13  79 SW13      29.94S WCI   6
RAYNESFORD     FAIR      29  16  56 SW16      29.96S WCI  18
ULM            FAIR      23  18  82 S9        29.98S WCI  13
WHITE SULPHUR    N/A      9   7  92 CALM      29.98S
$$

MTZ011-013-016-021-045-047-050-051-210900-
NORTH CENTRAL MONTANA

CITY           SKY/WX    TMP DP  RH WIND       PRES   REMARKS
HAVRE          FAIR      20  16  84 SW9       29.95S WCI   9
LEWISTOWN      FAIR      20  14  77 SE6       29.96S WCI  12
N BAR RANCH    FAIR      25  12  58 W5        29.97S
CHINOOK          N/A     12  10  92 CALM      29.96S
DENTON         FAIR      22  16  75 MISG      29.93S
GEYSER         FAIR      22  16  76 W12       29.94F WCI  11
GRASS RANGE    FAIR      26  17  66 W7        29.93S WCI  19
STANFORD       FAIR      21  15  78 W3        29.94S
WINIFRED       FAIR      28  18  67 W9        29.95S WCI  19
$$

MTZ017>020-022>027-061-062-210900-
NORTHEAST MONTANA

CITY           SKY/WX    TMP DP  RH WIND       PRES   REMARKS
GLASGOW        FAIR      14  12  92 S6        29.95S WCI   5
GLENDIVE       FAIR      19  14  81 S3        29.99R
JORDAN           N/A     14   9  80 W9        29.95F WCI   2
MALTA          CLEAR      5   3  92 W7        29.96S WCI  -7
SIDNEY         FAIR      17  14  88 S6        29.98S WCI   9
WOLF POINT     FAIR       4   1  88 CALM      29.98S
PLENTYWOOD       N/A     18  16  93 CALM      29.95R
POPLAR           N/A     16  12  86 CALM      29.99S VSB 1/4
$$

MTZ028>42-056>058-210900-
SOUTHCENTRAL AND SOUTHEAST MONTANA

CITY           SKY/WX    TMP DP  RH WIND       PRES   REMARKS
BAKER          FAIR      17  14  88 CALM      29.97F
BILLINGS       FAIR      25  17  72 SW10      29.99S WCI  15
LIVINGSTON     CLOUDY    27  18  69 SW14      29.99S WCI  16
MILES CITY     FAIR      15  13  91 SW8       29.99F WCI   4
BIG TIMBER     CLEAR     25  16  68 SW20      29.99S WCI  11
FORSYTH          N/A     18  16  93 W5        30.00R
HARLOWTON      FAIR      25  17  70 NW21G29   29.97R WCI  11
LAUREL           N/A     19  16  86 W7        30.01S WCI  10
$$

REGIONAL REPORTS...DAKOTAS

CITY           SKY/WX    TMP DP  RH WIND       PRES   REMARKS
WILLISTON      FAIR      11   9  92 CALM      29.97S
MINOT          FAIR      21  17  84 SW8       29.95S WCI  11
DICKINSON      FAIR      20  16  84 W8        29.95R WCI  10
BEACH          FAIR      21  18  86 SW8       30.00R WCI  12
CROSBY         FAIR      12  10  92 SW9       29.97R WCI   0
TIOGA          FAIR      12  12 100 CALM      29.97R
BISMARCK       FAIR      22  19  89 W5        29.99S
GRAND FORKS    FAIR      20  18  92 W8        29.97R WCI  10
FARGO          FAIR      28  25  88 SW5       29.97R
BUFFALO SD       N/A     28  20  71 NW8       29.90S WCI  20
RAPID CITY     LGT SNOW  30  27  88 NW10      29.97S FOG     WCI  21
$$

REGIONAL REPORTS...WYOMING/IDAHO/WASHINGTON

CITY           SKY/WX    TMP DP  RH WIND       PRES   REMARKS
GILLETTE       CLOUDY    26  21  81 W5        29.95S
SHERIDAN       MOCLDY    25  19  78 CALM      29.97F
BUFFALO WY     CLOUDY    27  12  53 NW6       29.93F WCI  20
CODY           FAIR      23  20  88 SW6       29.98R WCI  16
YELLOWSTONE LA   N/A     -7 -11  83 CALM      29.94R
IDAHO FALLS    FAIR      22  17  81 N3        30.03R
SALMON         CLOUDY    26  23  88 CALM      30.11R
BOISE          FAIR      30  26  85 CALM      30.15S
SPOKANE        FAIR      30  29  96 SE7       30.08F WCI  23
$$

REGIONAL REPORTS...ALBERTA

CITY           SKY/WX    TMP DP  RH WIND       PRES   REMARKS
CALGARY        PTCLDY    25  10  54 SE7       29.83R WCI  17
CARDSTON         N/A     30  16  55 W14G21      N/A  WCI  20
EDMONTON       CLOUDY    19  18  93 N3        29.86R
FORT MCMURRAY  FLURRIES  14  12  92 NW5       29.96R
HIGH LEVEL     CLOUDY    10   7  85 N9        29.97R WCI  -2
LETHBRIDGE     CLEAR     32  19  59 W23G31    29.89R WCI  19
LLOYDMINSTER   CLOUDY    19  19 100 SW3       29.86  FOG
MEDICINE HAT   CLEAR     25  19  80 SW7       29.88S WCI  17
MILK RIVER       N/A     18  14  86 NW6         N/A  WCI   9
ONEFOUR          N/A     19  16  86 W2          N/A
PEACE RIVER    CLOUDY    18  14  86 NE10      29.89R WCI   6
PINCHER CREEK  CLEAR     30  18  59 W28G35    29.90R WCI  16
WATERTON GATE    N/A     30  14  51 SW17G31     N/A  WCI  18
$$

REGIONAL REPORTS...SASKATCHEWAN

CITY           SKY/WX    TMP DP  RH WIND       PRES   REMARKS
CORONACH         N/A      9   7  92 SE2         N/A
CYPRESS HILLS    N/A     28  14  54 W7          N/A  WCI  21
ESTEVAN        CLEAR      9   5  85 SW5       29.96R
MOOSE JAW        N/A     14  12  92 SW2         N/A
PRINCE ALBERT  FLURRIES  19  14  79 SE3       29.94R
REGINA         CLEAR     12   9  85 E6        29.93S WCI   3
ROCKGLEN         N/A     16  14  93 W7          N/A  WCI   6
SASKATOON      CLOUDY    16  12  86 S3        29.92S
SWIFT CURRENT  CLEAR     21  16  79 SW13      29.85S WCI   9
VAL MARIE        N/A      1  -2  85 NW2         N/A
$$




USA.gov is the U.S. government's official web portal to all federal, state and local government web resources and services.